sat.trackr.live / text

‹ back to catalog

KUIPER-00151

NORAD 65771 · 2025-217K

PAYLOAD ACTIVE UNKNOWN

§ Identity

Operator
Country
US
Launch date
2025-09-25
Launch site
AFETR
Launch vehicle
Mass (kg)
RCS (m²)

External: N2YO · Heavens-Above · Gunter

§ Orbital elements

Epoch: 2026-09-20T22:41:57.897600Z

Period
97.30 min
Inclination
51.9009°
Eccentricity
0.0000570
Mean motion
14.79931215 rev/d
Perigee alt
629.1 km
Apogee alt
629.9 km
Semi-major
7,007.7 km
B*
6.8017e-5
RAAN
259.7011°
Arg perigee
53.3824°
Mean anomaly
306.7191°
Rev number
5,379

§ Raw data

KUIPER-001511 65771U 25217K   26263.94580900  .00000297  00000+0  68017-4 0  99902 65771  51.9009 259.7011 0000570  53.3824 306.7191 14.79931215 53797

JSON: /api/v1/satellites/65771 · /tle

For live sub-satellite position, see the globe view (requires WebGL).

§ Visibility from observer

Set your observer location to see the next 7 days of passes ≥ 10°. The values pass through the URL so the page stays shareable.

No JS? Fill the form by hand. The geolocation button needs JavaScript.